Regional Weather Roundup
Issued by NWS Cleveland, OH

Home | Current Version | Previous Version | Graphics & Text | Print | Product List | Glossary On
Versions: 1 2 3 4 5 6 7 8 9 10 11 12 13 14 15 16 17 18 19 20 21 22 23 24 25 26 27 28 29 30 31 32 33 34 35 36 37 38 39 40 41 42 43 44 45 46 47 48 49 50
293
ASUS41 KCLE 171610
RWRCLE
OHIO REGIONAL WEATHER ROUNDUP
NATIONAL WEATHER SERVICE WILMINGTON, OH
1100 AM EST TUE JAN 17 2017

NOTE: "FAIR" INDICATES FEW OR NO CLOUDS BELOW 12,000 FEET WITH NO
SIGNIFICANT WEATHER AND/OR OBSTRUCTIONS TO VISIBILITY.

OHZ001>008-015>018-024>027-034-035-043-044-171700-
   NORTHWEST OHIO

CITY           SKY/WX    TMP DP  RH WIND       PRES   REMARKS
DEFIANCE       CLOUDY    50  45  83 W15G24    29.82R
FINDLAY        PTSUNNY   57  50  77 W17       29.81R
TOLEDO EXPRESS CLOUDY    53  51  93 SW25G32   29.79R
TOLEDO EXEC    FAIR      54  52  93 SW16      29.79R
LIMA           CLOUDY    55  53  93 W17       29.84R
$$

OHZ009>014-019>023-028>033-038-089-171700-
   NORTHEAST OHIO

CITY           SKY/WX    TMP DP  RH WIND       PRES   REMARKS
CLE-HOPKINS    CLOUDY    57  51  80 S13       29.83F
CLE-LAKEFRONT  CLOUDY    57  52  83 S16       29.80F
CUY CO. ARPT   PTSUNNY   55 N/A N/A S16       29.82F
LORAIN-ELYRIA  LGT RAIN  53  50  89 S12       29.81F FOG
ASHTABULA      LGT RAIN  49  49 100 S9        29.86S FOG
AKRON-CANTON   CLOUDY    57  53  86 SW17      29.86S
WOOSTER        CLOUDY    55  52  89 S13       29.84F
MANSFIELD      CLOUDY    57  54  89 SW22G32   29.83S
YOUNGSTOWN     CLOUDY    51  49  92 S12       29.88F FOG
$$

OHZ042-051>053-060>062-070>072-077>081-171700-
  SOUTHWEST OHIO

CITY           SKY/WX    TMP DP  RH WIND       PRES   REMARKS
CINC-COVINGTON PTSUNNY   63  57  81 SW15G22   29.91R
CINC-LUNKEN    PTSUNNY   62  57  83 SW14      29.92R
HAMILTON       LGT RAIN  57  53  86 W10       29.92R
DAYTON         CLOUDY    55  51  86 W9        29.90R
WRIGHT-PAT AFB PTSUNNY   58  54  87 W12G21    29.88R
DAYTON GENERAL CLOUDY    57  50  77 W9        29.89R
WILMINGTON     FAIR      61  56  83 SW20      29.88S
$$

OHZ036-037-039>041-045>050-054>059-063>069-073>076-082>088-171700-
  CENTRAL AND SOUTHEAST OHIO

CITY           SKY/WX    TMP DP  RH WIND       PRES   REMARKS
COLUMBUS       CLOUDY    62  55  77 SW14G20   29.88R
OSU AIRPORT    CLOUDY    60  56  86 SW16      29.87S
BOLTON FIELD   CLOUDY    61  55  82 SW18G26   29.89R
RICKENBACK AFB   N/A     60  57  90 SW16      29.88R
NEWARK         CLOUDY    61  55  81 SW13G25   29.87S
MARION         CLOUDY    57  53  86 W13       29.85R
LANCASTER      FAIR      63  56  78 S12G25    29.89S
ZANESVILLE     PTSUNNY   58  54  86 S14G21    29.89F
NEW PHILLY     CLOUDY    58  55  90 S10G18    29.88F
$$




USA.gov is the U.S. government's official web portal to all federal, state and local government web resources and services.